Terminal Aerodrome Forecast
Issued by NWS

Home | Current Version | Previous Version | Graphics & Text | Print | Product List | Glossary Off
Versions: 1 2 3 4 5 6 7 8 9 10 11 12 13 14 15 16 17 18 19 20 21 22 23 24 25 26 27 28 29 30 31 32 33 34 35 36 37 38 39 40 41 42 43 44 45 46 47 48

000
FTUS43 KDDC 062320
TAFHYS
TAF
KHYS 062320Z 0700/0724 34003KT P6SM BKN200
     FM070600 05012G22KT P6SM OVC070
     FM071200 04014G24KT P6SM VCSH OVC040
     FM071500 03015G25KT 3SM -SHSN OVC015
     FM072000 03013KT P6SM OVC050=

USA.gov is the U.S. government's official web portal to all federal, state and local government web resources and services.